Time,TemperatureF,DewpointF,PressureIn,WindDirection,WindDirectionDegrees,WindSpeedMPH,WindSpeedGustMPH,Humidity,HourlyPrecipIn,Conditions,Clouds,dailyrainin,SolarRadiationWatts/m^2,SoftwareType,DateUTC
2013-03-02 00:00:00,30.7,24.4,30.35,NE,38,1.0,1.0,77,0.00,,SKC,0.01,0.00,VWS V14.01,2013-03-02 07:00:00,
2013-03-02 00:05:00,30.7,24.7,30.34,NE,38,0.0,2.0,78,0.00,,SKC,0.00,0.00,VWS V14.01,2013-03-02 07:05:00,
2013-03-02 00:11:00,30.7,24.7,30.33,NE,37,0.0,2.0,78,0.00,,SKC,0.00,0.00,VWS V14.01,2013-03-02 07:11:00,
2013-03-02 00:15:00,30.7,24.7,30.33,NE,37,0.0,2.0,78,0.00,,SKC,0.00,0.00,VWS V14.01,2013-03-02 07:15:00,
2013-03-02 00:17:00,30.7,24.7,30.34,NE,38,0.0,0.0,78,0.00,,SKC,0.00,0.00,VWS V14.01,2013-03-02 07:17:00,
2013-03-02 00:23:00,30.6,24.6,30.33,NE,38,0.0,0.0,78,0.00,,SKC,0.00,0.00,VWS V14.01,2013-03-02 07:23:00,
2013-03-02 00:30:00,30.6,24.6,30.34,NE,38,0.0,2.0,78,0.00,,SKC,0.00,0.00,VWS V14.01,2013-03-02 07:30:00,
2013-03-02 00:36:00,30.6,24.6,30.34,NE,38,0.0,0.0,78,0.00,,SKC,0.00,0.00,VWS V14.01,2013-03-02 07:36:00,
2013-03-02 00:42:00,30.6,24.9,30.33,NE,37,0.0,2.0,79,0.00,,SKC,0.00,0.00,VWS V14.01,2013-03-02 07:42:00,
2013-03-02 00:45:00,30.6,24.6,30.33,NE,38,0.0,2.0,78,0.00,,SKC,0.00,0.00,VWS V14.01,2013-03-02 07:45:00,
2013-03-02 00:48:00,30.6,24.9,30.34,NE,37,0.0,0.0,79,0.00,,SKC,0.00,0.00,VWS V14.01,2013-03-02 07:48:00,
2013-03-02 00:54:00,30.5,24.5,30.34,NE,37,0.0,0.0,78,0.00,,SKC,0.00,0.00,VWS V14.01,2013-03-02 07:54:00,
2013-03-02 01:00:00,30.5,24.8,30.34,NE,37,0.0,0.0,79,0.00,,SKC,0.00,0.00,VWS V14.01,2013-03-02 08:00:00,
2013-03-02 01:06:00,30.5,24.8,30.29,NE,37,0.0,0.0,79,0.00,,SKC,0.00,0.00,VWS V14.01,2013-03-02 08:06:00,
2013-03-02 01:11:00,30.4,24.7,30.29,NE,38,0.0,0.0,79,0.00,,SKC,0.00,0.00,VWS V14.01,2013-03-02 08:11:00,
2013-03-02 01:15:00,30.4,24.7,30.29,NE,38,0.0,0.0,79,0.00,,SKC,0.00,0.00,VWS V14.01,2013-03-02 08:15:00,
2013-03-02 01:18:00,30.4,24.7,30.31,NE,37,0.0,0.0,79,0.00,,SKC,0.00,0.00,VWS V14.01,2013-03-02 08:18:00,
2013-03-02 01:24:00,30.4,24.4,30.31,NE,38,0.0,0.0,78,0.00,,SKC,0.00,0.00,VWS V14.01,2013-03-02 08:24:00,
2013-03-02 01:30:00,30.3,24.3,30.31,NE,38,0.0,0.0,78,0.00,,SKC,0.00,0.00,VWS V14.01,2013-03-02 08:30:00,
2013-03-02 01:36:00,30.2,24.2,30.31,NE,38,0.0,0.0,78,0.00,,SKC,0.00,0.00,VWS V14.01,2013-03-02 08:36:00,
2013-03-02 01:42:00,29.9,23.9,30.31,NE,38,0.0,0.0,78,0.00,,SKC,0.00,0.00,VWS V14.01,2013-03-02 08:42:00,
2013-03-02 01:45:00,29.8,23.8,30.31,NE,38,1.0,1.0,78,0.00,,SKC,0.00,0.00,VWS V14.01,2013-03-02 08:45:00,
2013-03-02 01:48:00,29.6,23.3,30.31,NE,38,1.0,3.0,77,0.00,,SKC,0.00,0.00,VWS V14.01,2013-03-02 08:48:00,
2013-03-02 01:54:00,29.2,22.9,30.31,NE,38,0.0,3.0,77,0.00,,SKC,0.00,0.00,VWS V14.01,2013-03-02 08:54:00,
2013-03-02 02:00:00,29.0,22.7,30.31,NE,38,0.0,3.0,77,0.00,,SKC,0.00,0.00,VWS V14.01,2013-03-02 09:00:00,
2013-03-02 02:06:00,28.7,22.4,30.31,NE,37,0.0,0.0,77,0.00,,SKC,0.00,0.00,VWS V14.01,2013-03-02 09:06:00,
2013-03-02 02:12:00,28.3,22.0,30.32,NE,38,0.0,0.0,77,0.00,,SKC,0.00,0.00,VWS V14.01,2013-03-02 09:12:00,
2013-03-02 02:15:00,28.1,21.8,30.32,NE,37,0.0,0.0,77,0.00,,SKC,0.00,0.00,VWS V14.01,2013-03-02 09:15:00,
2013-03-02 02:18:00,27.9,21.9,30.32,NE,38,0.0,0.0,78,0.00,,SKC,0.00,0.00,VWS V14.01,2013-03-02 09:18:00,
2013-03-02 02:24:00,27.6,21.6,30.32,NE,38,0.0,2.0,78,0.00,,SKC,0.00,0.00,VWS V14.01,2013-03-02 09:24:00,
2013-03-02 02:30:00,27.2,21.3,30.32,NE,38,0.0,2.0,78,0.00,,SKC,0.00,0.00,VWS V14.01,2013-03-02 09:30:00,
2013-03-02 02:36:00,27.0,21.4,30.32,NE,37,0.0,0.0,79,0.00,,SKC,0.00,0.00,VWS V14.01,2013-03-02 09:36:00,
2013-03-02 02:42:00,26.7,21.1,30.32,NE,38,1.0,2.0,79,0.00,,SKC,0.00,0.00,VWS V14.01,2013-03-02 09:42:00,
2013-03-02 02:45:00,26.4,20.8,30.32,NE,37,1.0,2.0,79,0.00,,SKC,0.00,0.00,VWS V14.01,2013-03-02 09:45:00,
2013-03-02 02:49:00,26.2,20.6,30.34,NE,38,0.0,1.0,79,0.00,,SKC,0.00,0.00,VWS V14.01,2013-03-02 09:49:00,
2013-03-02 02:55:00,25.8,20.2,30.34,NE,38,0.0,1.0,79,0.00,,SKC,0.00,0.00,VWS V14.01,2013-03-02 09:55:00,
2013-03-02 03:00:00,25.5,20.2,30.34,NE,38,0.0,1.0,80,0.00,,SKC,0.00,0.00,VWS V14.01,2013-03-02 10:00:00,
2013-03-02 03:01:00,25.5,20.2,30.34,NE,38,0.0,1.0,80,0.00,,SKC,0.00,0.00,VWS V14.01,2013-03-02 10:01:00,
2013-03-02 03:07:00,25.1,19.8,30.37,NE,38,0.0,0.0,80,0.00,,SKC,0.00,0.00,VWS V14.01,2013-03-02 10:07:00,
2013-03-02 03:13:00,24.8,19.8,30.37,NE,38,0.0,0.0,81,0.00,,SKC,0.00,0.00,VWS V14.01,2013-03-02 10:13:00,
2013-03-02 03:15:00,24.7,19.7,30.37,NE,37,0.0,0.0,81,0.00,,SKC,0.00,0.00,VWS V14.01,2013-03-02 10:15:00,
2013-03-02 03:19:00,24.5,19.8,30.37,NE,38,0.0,0.0,82,0.00,,SKC,0.00,0.00,VWS V14.01,2013-03-02 10:19:00,
2013-03-02 03:25:00,24.2,19.5,30.37,NE,37,0.0,0.0,82,0.00,,SKC,0.00,0.00,VWS V14.01,2013-03-02 10:25:00,
2013-03-02 03:30:00,24.0,19.3,30.37,NE,38,0.0,0.0,82,0.00,,SKC,0.00,0.00,VWS V14.01,2013-03-02 10:30:00,
2013-03-02 03:31:00,24.0,19.3,30.37,NE,38,0.0,0.0,82,0.00,,SKC,0.00,0.00,VWS V14.01,2013-03-02 10:31:00,
2013-03-02 03:37:00,23.7,19.0,30.38,NE,38,0.0,0.0,82,0.00,,SKC,0.00,0.00,VWS V14.01,2013-03-02 10:37:00,
2013-03-02 03:43:00,23.5,18.8,30.38,NE,37,0.0,0.0,82,0.00,,SKC,0.00,0.00,VWS V14.01,2013-03-02 10:43:00,
2013-03-02 03:45:00,23.4,19.0,30.38,NE,37,2.0,2.0,83,0.00,,SKC,0.00,0.00,VWS V14.01,2013-03-02 10:45:00,
2013-03-02 03:49:00,23.3,18.9,30.39,NE,38,0.0,2.0,83,0.00,,SKC,0.00,0.00,VWS V14.01,2013-03-02 10:49:00,
2013-03-02 03:55:00,23.1,18.7,30.40,NE,38,0.0,2.0,83,0.00,,SKC,0.00,0.00,VWS V14.01,2013-03-02 10:55:00,
2013-03-02 04:00:00,23.0,18.9,30.40,NE,38,0.0,2.0,84,0.00,,SKC,0.00,0.00,VWS V14.01,2013-03-02 11:00:00,
2013-03-02 04:01:00,23.0,18.9,30.40,NE,38,0.0,2.0,84,0.00,,SKC,0.00,0.00,VWS V14.01,2013-03-02 11:01:00,
2013-03-02 04:06:00,22.8,18.7,30.40,NE,38,0.0,2.0,84,0.00,,SKC,0.00,0.00,VWS V14.01,2013-03-02 11:06:00,
2013-03-02 04:12:00,22.7,18.6,30.39,NE,37,0.0,2.0,84,0.00,,SKC,0.00,0.00,VWS V14.01,2013-03-02 11:12:00,
2013-03-02 04:15:00,22.5,18.4,30.39,NE,37,0.0,2.0,84,0.00,,SKC,0.00,0.00,VWS V14.01,2013-03-02 11:15:00,
2013-03-02 04:18:00,22.5,18.4,30.40,NE,38,0.0,0.0,84,0.00,,SKC,0.00,0.00,VWS V14.01,2013-03-02 11:18:00,
2013-03-02 04:24:00,22.4,18.6,30.40,NE,37,0.0,0.0,85,0.00,,SKC,0.00,0.00,VWS V14.01,2013-03-02 11:24:00,
2013-03-02 04:30:00,22.3,20.3,30.40,NE,37,0.0,0.0,92,0.00,,SKC,0.00,0.00,VWS V14.01,2013-03-02 11:30:00,
2013-03-02 04:36:00,22.2,18.4,30.40,NE,38,0.0,0.0,85,0.00,,SKC,0.00,0.00,VWS V14.01,2013-03-02 11:36:00,
2013-03-02 04:42:00,22.1,18.3,30.40,NE,38,0.0,1.0,85,0.00,,SKC,0.00,0.00,VWS V14.01,2013-03-02 11:42:00,
2013-03-02 04:45:00,22.1,18.3,30.40,NE,38,2.0,3.0,85,0.00,,SKC,0.00,0.00,VWS V14.01,2013-03-02 11:45:00,
2013-03-02 04:48:00,22.1,18.6,30.40,NE,37,2.0,2.0,86,0.00,,SKC,0.00,0.00,VWS V14.01,2013-03-02 11:48:00,
2013-03-02 04:54:00,22.4,19.1,30.40,NE,38,4.0,5.0,87,0.00,,SKC,0.00,0.00,VWS V14.01,2013-03-02 11:54:00,
2013-03-02 05:00:00,22.9,19.6,30.40,NE,36,2.0,5.0,87,0.00,,SKC,0.00,0.00,VWS V14.01,2013-03-02 12:00:00,
2013-03-02 05:06:00,23.3,19.7,30.41,NE,36,2.0,5.0,86,0.00,,SKC,0.00,0.00,VWS V14.01,2013-03-02 12:06:00,
2013-03-02 05:12:00,23.5,19.7,30.41,SSW,202,6.0,6.0,85,0.00,,SKC,0.00,0.00,VWS V14.01,2013-03-02 12:12:00,
2013-03-02 05:15:00,23.7,19.9,30.41,SW,236,1.0,6.0,85,0.00,,SKC,0.00,0.00,VWS V14.01,2013-03-02 12:15:00,
2013-03-02 05:18:00,23.8,20.0,30.41,SW,233,3.0,6.0,85,0.00,,SKC,0.00,0.00,VWS V14.01,2013-03-02 12:18:00,
2013-03-02 05:25:00,24.0,19.9,30.41,SW,221,3.0,6.0,84,0.00,,SKC,0.00,0.00,VWS V14.01,2013-03-02 12:25:00,
2013-03-02 05:30:00,24.1,19.7,30.41,SW,221,3.0,6.0,83,0.00,,SKC,0.00,0.00,VWS V14.01,2013-03-02 12:30:00,
2013-03-02 05:31:00,24.1,19.7,30.41,SW,221,3.0,6.0,83,0.00,,SKC,0.00,0.00,VWS V14.01,2013-03-02 12:31:00,
2013-03-02 05:37:00,24.2,19.8,30.41,SW,221,5.0,6.0,83,0.00,,SKC,0.00,0.00,VWS V14.01,2013-03-02 12:37:00,
2013-03-02 05:43:00,24.5,19.8,30.40,SSW,209,1.0,6.0,82,0.00,,SKC,0.00,0.00,VWS V14.01,2013-03-02 12:43:00,
2013-03-02 05:45:00,24.5,19.8,30.40,SSW,202,3.0,6.0,82,0.00,,SKC,0.00,0.00,VWS V14.01,2013-03-02 12:45:00,
2013-03-02 05:49:00,24.5,19.5,30.40,SSW,203,4.0,5.0,81,0.00,,SKC,0.00,0.00,VWS V14.01,2013-03-02 12:49:00,
2013-03-02 05:55:00,24.5,19.5,30.40,SSW,209,3.0,6.0,81,0.00,,SKC,0.00,0.00,VWS V14.01,2013-03-02 12:55:00,
2013-03-02 06:00:00,24.6,19.3,30.41,SSW,207,3.0,6.0,80,0.00,,SKC,0.00,0.00,VWS V14.01,2013-03-02 13:00:00,
2013-03-02 06:01:00,24.6,19.3,30.41,SSW,207,3.0,6.0,80,0.00,,SKC,0.00,0.00,VWS V14.01,2013-03-02 13:01:00,
2013-03-02 06:06:00,24.7,19.4,30.45,SSW,193,5.0,5.0,80,0.00,,SKC,0.00,0.00,VWS V14.01,2013-03-02 13:06:00,
2013-03-02 06:12:00,24.7,19.4,30.45,SSW,196,4.0,6.0,80,0.00,,SKC,0.00,0.00,VWS V14.01,2013-03-02 13:12:00,
2013-03-02 06:15:00,24.6,19.0,30.45,SSW,196,2.0,6.0,79,0.00,,SKC,0.00,0.00,VWS V14.01,2013-03-02 13:15:00,
2013-03-02 06:18:00,24.5,18.9,30.45,SSW,192,2.0,3.0,79,0.00,,SKC,0.00,0.00,VWS V14.01,2013-03-02 13:18:00,
2013-03-02 06:24:00,24.4,18.8,30.46,SSW,201,6.0,6.0,79,0.00,,SKC,0.00,0.00,VWS V14.01,2013-03-02 13:24:00,
2013-03-02 06:30:00,24.4,18.8,30.46,SW,222,3.0,7.0,79,0.00,,SKC,0.00,0.00,VWS V14.01,2013-03-02 13:30:00,
2013-03-02 06:36:00,24.4,18.8,30.46,SW,221,2.0,4.0,79,0.00,,SKC,0.00,0.00,VWS V14.01,2013-03-02 13:36:00,
2013-03-02 06:42:00,24.2,18.6,30.46,SW,221,0.0,4.0,79,0.00,,SKC,0.00,0.00,VWS V14.01,2013-03-02 13:42:00,
2013-03-02 06:45:00,24.1,18.5,30.47,SW,221,0.0,4.0,79,0.00,,SKC,0.00,5.00,VWS V14.01,2013-03-02 13:45:00,
2013-03-02 06:48:00,24.0,18.5,30.46,SW,221,2.0,3.0,79,0.00,,SKC,0.00,7.00,VWS V14.01,2013-03-02 13:48:00,
2013-03-02 06:54:00,23.9,18.4,30.47,SW,221,4.0,4.0,79,0.00,,SKC,0.00,11.00,VWS V14.01,2013-03-02 13:54:00,
2013-03-02 07:00:00,23.8,18.5,30.46,SW,221,3.0,5.0,80,0.00,,SKC,0.00,12.00,VWS V14.01,2013-03-02 14:00:00,
2013-03-02 07:06:00,23.8,18.5,30.47,SW,221,5.0,5.0,80,0.00,,SKC,0.00,16.00,VWS V14.01,2013-03-02 14:06:00,
2013-03-02 07:12:00,23.8,18.5,30.47,SW,220,6.0,6.0,80,0.00,,SKC,0.00,19.00,VWS V14.01,2013-03-02 14:12:00,
2013-03-02 07:15:00,23.9,18.6,30.47,SW,221,5.0,10.0,80,0.00,,SKC,0.00,19.00,VWS V14.01,2013-03-02 14:15:00,
2013-03-02 07:18:00,24.0,18.7,30.47,SW,223,4.0,6.0,80,0.00,,SKC,0.00,19.00,VWS V14.01,2013-03-02 14:18:00,
2013-03-02 07:24:00,24.2,18.6,30.47,SW,217,2.0,6.0,79,0.00,,SKC,0.00,19.00,VWS V14.01,2013-03-02 14:24:00,
2013-03-02 07:30:00,24.3,18.7,30.47,South,186,0.0,7.0,79,0.00,,SKC,0.00,19.00,VWS V14.01,2013-03-02 14:30:00,
2013-03-02 07:36:00,24.3,18.4,30.47,SSW,193,3.0,4.0,78,0.00,,SKC,0.00,21.00,VWS V14.01,2013-03-02 14:36:00,
2013-03-02 07:42:00,24.4,18.8,30.47,SW,215,4.0,6.0,79,0.00,,SKC,0.00,26.00,VWS V14.01,2013-03-02 14:42:00,
2013-03-02 07:45:00,24.4,18.8,30.47,SW,215,2.0,6.0,79,0.00,,SKC,0.00,30.00,VWS V14.01,2013-03-02 14:45:00,
2013-03-02 07:48:00,24.4,18.5,30.47,SW,215,2.0,3.0,78,0.00,,SKC,0.00,32.00,VWS V14.01,2013-03-02 14:48:00,
2013-03-02 07:54:00,24.4,18.5,30.47,SW,215,1.0,3.0,78,0.00,,SKC,0.00,35.00,VWS V14.01,2013-03-02 14:54:00,
2013-03-02 08:00:00,24.5,18.9,30.45,SW,218,0.0,6.0,79,0.00,,SKC,0.00,40.00,VWS V14.01,2013-03-02 15:00:00,
2013-03-02 08:06:00,24.6,18.7,30.45,SW,218,0.0,1.0,78,0.00,,SKC,0.00,58.00,VWS V14.01,2013-03-02 15:06:00,
2013-03-02 08:12:00,24.7,18.8,30.45,SW,218,3.0,3.0,78,0.00,,SKC,0.00,60.00,VWS V14.01,2013-03-02 15:12:00,
2013-03-02 08:15:00,24.8,18.9,30.45,SW,214,2.0,7.0,78,0.00,,SKC,0.00,56.00,VWS V14.01,2013-03-02 15:15:00,
2013-03-02 08:18:00,24.9,19.0,30.45,SW,215,2.0,3.0,78,0.00,,SKC,0.00,51.00,VWS V14.01,2013-03-02 15:18:00,
2013-03-02 08:24:00,25.3,19.4,30.45,WSW,242,0.0,6.0,78,0.00,,SKC,0.00,39.00,VWS V14.01,2013-03-02 15:24:00,
2013-03-02 08:30:00,25.4,19.5,30.45,WSW,241,0.0,6.0,78,0.00,,SKC,0.00,39.00,VWS V14.01,2013-03-02 15:30:00,
2013-03-02 08:36:00,25.5,19.3,30.45,WSW,242,0.0,2.0,77,0.00,,SKC,0.00,42.00,VWS V14.01,2013-03-02 15:36:00,
2013-03-02 08:42:00,25.7,19.5,30.45,WSW,241,0.0,2.0,77,0.00,,SKC,0.00,44.00,VWS V14.01,2013-03-02 15:42:00,
2013-03-02 08:45:00,25.7,19.5,30.45,WSW,242,0.0,2.0,77,0.00,,SKC,0.00,49.00,VWS V14.01,2013-03-02 15:45:00,
2013-03-02 08:48:00,25.8,19.6,30.45,WSW,241,0.0,0.0,77,0.00,,SKC,0.00,54.00,VWS V14.01,2013-03-02 15:48:00,
2013-03-02 08:55:00,26.5,20.6,30.45,WSW,241,0.0,0.0,78,0.00,,SKC,0.00,369.00,VWS V14.01,2013-03-02 15:55:00,
2013-03-02 09:00:00,28.6,21.7,30.43,WSW,241,0.0,1.0,75,0.00,,SKC,0.00,397.00,VWS V14.01,2013-03-02 16:00:00,
2013-03-02 09:01:00,28.6,21.7,30.43,WSW,241,0.0,1.0,75,0.00,,SKC,0.00,397.00,VWS V14.01,2013-03-02 16:01:00,
2013-03-02 09:07:00,30.1,22.2,30.39,WSW,242,0.0,1.0,72,0.00,,SKC,0.00,438.00,VWS V14.01,2013-03-02 16:07:00,
2013-03-02 09:13:00,32.0,22.6,30.38,WSW,242,1.0,3.0,68,0.00,,SKC,0.00,464.00,VWS V14.01,2013-03-02 16:13:00,
2013-03-02 09:15:00,32.7,23.0,30.37,WSW,242,2.0,3.0,67,0.00,,SKC,0.00,473.00,VWS V14.01,2013-03-02 16:15:00,
2013-03-02 09:19:00,33.4,22.9,30.37,WSW,242,0.0,2.0,65,0.00,,SKC,0.00,482.00,VWS V14.01,2013-03-02 16:19:00,
2013-03-02 09:25:00,34.2,22.5,30.35,NNE,28,2.0,4.0,62,0.00,,SKC,0.00,499.00,VWS V14.01,2013-03-02 16:25:00,
2013-03-02 09:30:00,34.4,23.1,30.35,NE,36,6.0,6.0,63,0.00,,SKC,0.00,526.00,VWS V14.01,2013-03-02 16:30:00,
2013-03-02 09:31:00,34.4,23.1,30.35,NE,36,6.0,6.0,63,0.00,,SKC,0.00,526.00,VWS V14.01,2013-03-02 16:31:00,
2013-03-02 09:36:00,34.8,22.7,30.35,NE,41,4.0,6.0,61,0.00,,SKC,0.00,529.00,VWS V14.01,2013-03-02 16:36:00,
2013-03-02 09:42:00,35.4,23.3,30.35,NE,38,1.0,6.0,61,0.00,,SKC,0.00,547.00,VWS V14.01,2013-03-02 16:42:00,
2013-03-02 09:45:00,35.7,22.8,30.34,NE,40,3.0,6.0,59,0.00,,SKC,0.00,540.00,VWS V14.01,2013-03-02 16:45:00,
2013-03-02 09:48:00,35.7,23.2,30.34,ENE,63,2.0,5.0,60,0.00,,SKC,0.00,548.00,VWS V14.01,2013-03-02 16:48:00,
2013-03-02 09:54:00,36.1,23.6,30.33,NE,46,4.0,6.0,60,0.00,,SKC,0.00,568.00,VWS V14.01,2013-03-02 16:54:00,
2013-03-02 09:59:00,36.5,23.5,30.33,ENE,61,2.0,6.0,59,0.00,,SKC,0.00,591.00,VWS V14.01,2013-03-02 16:59:00,
2013-03-02 10:00:00,36.6,23.2,30.33,NE,48,4.0,6.0,58,0.00,,SKC,0.00,582.00,VWS V14.01,2013-03-02 17:00:00,
2013-03-02 10:05:00,37.1,23.3,30.34,NE,41,4.0,5.0,57,0.00,,SKC,0.00,608.00,VWS V14.01,2013-03-02 17:05:00,
2013-03-02 10:11:00,37.8,23.5,30.32,NE,41,3.0,5.0,56,0.00,,SKC,0.00,626.00,VWS V14.01,2013-03-02 17:11:00,
2013-03-02 10:15:00,37.9,23.6,30.32,NE,51,3.0,6.0,56,0.00,,SKC,0.00,626.00,VWS V14.01,2013-03-02 17:15:00,
2013-03-02 10:17:00,38.0,23.7,30.32,NE,53,1.0,3.0,56,0.00,,SKC,0.00,629.00,VWS V14.01,2013-03-02 17:17:00,
2013-03-02 10:23:00,38.7,23.9,30.32,NNE,26,3.0,6.0,55,0.00,,SKC,0.00,638.00,VWS V14.01,2013-03-02 17:23:00,
2013-03-02 10:29:00,39.2,24.0,30.31,NE,45,5.0,9.0,54,0.00,,SKC,0.00,659.00,VWS V14.01,2013-03-02 17:29:00,
2013-03-02 10:30:00,39.2,24.4,30.32,NNE,23,9.0,9.0,55,0.00,,SKC,0.00,661.00,VWS V14.01,2013-03-02 17:30:00,
2013-03-02 10:35:00,39.2,24.4,30.31,NE,48,4.0,10.0,55,0.00,,SKC,0.00,673.00,VWS V14.01,2013-03-02 17:35:00,
2013-03-02 10:41:00,39.5,24.7,30.31,NE,48,5.0,10.0,55,0.00,,SKC,0.00,684.00,VWS V14.01,2013-03-02 17:41:00,
2013-03-02 10:45:00,39.8,25.0,30.29,NNE,27,3.0,10.0,55,0.00,,SKC,0.00,691.00,VWS V14.01,2013-03-02 17:45:00,
2013-03-02 10:47:00,40.0,24.7,30.30,NE,41,1.0,7.0,54,0.00,,SKC,0.00,677.00,VWS V14.01,2013-03-02 17:47:00,
2013-03-02 10:53:00,40.6,24.8,30.29,NE,45,7.0,9.0,53,0.00,,SKC,0.00,703.00,VWS V14.01,2013-03-02 17:53:00,
2013-03-02 10:59:00,41.0,25.6,30.28,NNE,29,5.0,9.0,54,0.00,,SKC,0.00,707.00,VWS V14.01,2013-03-02 17:59:00,
2013-03-02 11:00:00,41.1,25.3,30.29,NE,46,3.0,9.0,53,0.00,,SKC,0.00,710.00,VWS V14.01,2013-03-02 18:00:00,
2013-03-02 11:05:00,41.6,25.3,30.28,NNE,31,6.0,8.0,52,0.00,,SKC,0.00,710.00,VWS V14.01,2013-03-02 18:05:00,
2013-03-02 11:12:00,41.9,25.6,30.28,NE,45,7.0,9.0,52,0.00,,SKC,0.00,724.00,VWS V14.01,2013-03-02 18:12:00,
2013-03-02 11:15:00,42.2,25.4,30.27,NE,51,4.0,10.0,51,0.00,,SKC,0.00,714.00,VWS V14.01,2013-03-02 18:15:00,
2013-03-02 11:18:00,42.3,25.5,30.27,NE,38,6.0,6.0,51,0.00,,SKC,0.00,729.00,VWS V14.01,2013-03-02 18:18:00,
2013-03-02 11:24:00,42.4,25.6,30.27,North,5,6.0,9.0,51,0.00,,SKC,0.00,698.00,VWS V14.01,2013-03-02 18:24:00,
2013-03-02 11:30:00,42.9,26.0,30.26,NE,38,6.0,9.0,51,0.00,,SKC,0.00,747.00,VWS V14.01,2013-03-02 18:30:00,
2013-03-02 11:36:00,43.6,26.7,30.25,North,9,4.0,10.0,51,0.00,,SKC,0.00,758.00,VWS V14.01,2013-03-02 18:36:00,
2013-03-02 11:42:00,43.8,25.9,30.25,NE,51,4.0,10.0,49,0.00,,SKC,0.00,770.00,VWS V14.01,2013-03-02 18:42:00,
2013-03-02 11:45:00,43.9,26.0,30.24,NNE,12,5.0,10.0,49,0.00,,SKC,0.00,735.00,VWS V14.01,2013-03-02 18:45:00,
2013-03-02 11:48:00,44.2,26.3,30.24,ENE,61,10.0,10.0,49,0.00,,SKC,0.00,751.00,VWS V14.01,2013-03-02 18:48:00,
2013-03-02 11:54:00,44.5,26.5,30.23,NNE,24,6.0,10.0,49,0.00,,SKC,0.00,726.00,VWS V14.01,2013-03-02 18:54:00,
2013-03-02 12:00:00,44.6,26.6,30.23,North,11,5.0,10.0,49,0.00,,SKC,0.00,777.00,VWS V14.01,2013-03-02 19:00:00,
2013-03-02 12:06:00,44.9,26.4,30.22,North,10,4.0,11.0,48,0.00,,SKC,0.00,714.00,VWS V14.01,2013-03-02 19:06:00,
2013-03-02 12:12:00,45.3,26.3,30.21,North,11,0.0,11.0,47,0.00,,SKC,0.00,768.00,VWS V14.01,2013-03-02 19:12:00,
2013-03-02 12:15:00,46.1,26.5,30.21,NNE,27,4.0,11.0,46,0.00,,SKC,0.00,770.00,VWS V14.01,2013-03-02 19:15:00,
2013-03-02 12:18:00,46.4,27.3,30.21,NNE,28,1.0,9.0,47,0.00,,SKC,0.00,770.00,VWS V14.01,2013-03-02 19:18:00,
2013-03-02 12:24:00,46.0,26.4,30.21,NNE,19,2.0,11.0,46,0.00,,SKC,0.00,751.00,VWS V14.01,2013-03-02 19:24:00,
2013-03-02 12:30:00,46.1,26.5,30.20,NNE,25,6.0,11.0,46,0.00,,SKC,0.00,765.00,VWS V14.01,2013-03-02 19:30:00,
2013-03-02 12:36:00,46.4,26.2,30.20,NNE,33,3.0,12.0,45,0.00,,SKC,0.00,803.00,VWS V14.01,2013-03-02 19:36:00,
2013-03-02 12:42:00,46.5,26.3,30.18,North,10,3.0,12.0,45,0.00,,SKC,0.00,766.00,VWS V14.01,2013-03-02 19:42:00,
2013-03-02 12:45:00,46.6,26.4,30.18,NNE,17,11.0,12.0,45,0.00,,SKC,0.00,721.00,VWS V14.01,2013-03-02 19:45:00,
2013-03-02 12:48:00,46.7,26.0,30.18,North,360,4.0,11.0,44,0.00,,SKC,0.00,765.00,VWS V14.01,2013-03-02 19:48:00,
2013-03-02 12:54:00,47.0,26.2,30.17,North,355,5.0,11.0,44,0.00,,SKC,0.00,759.00,VWS V14.01,2013-03-02 19:54:00,
2013-03-02 13:00:00,47.5,26.1,30.17,NNE,22,9.0,11.0,43,0.00,,SKC,0.00,752.00,VWS V14.01,2013-03-02 20:00:00,
2013-03-02 13:06:00,47.5,26.1,30.17,NNE,33,3.0,10.0,43,0.00,,SKC,0.00,758.00,VWS V14.01,2013-03-02 20:06:00,
2013-03-02 13:12:00,48.0,26.6,30.17,North,11,6.0,10.0,43,0.00,,SKC,0.00,752.00,VWS V14.01,2013-03-02 20:12:00,
2013-03-02 13:15:00,48.0,26.6,30.17,ENE,75,7.0,10.0,43,0.00,,SKC,0.00,735.00,VWS V14.01,2013-03-02 20:15:00,
2013-03-02 13:18:00,48.0,26.6,30.16,North,5,6.0,11.0,43,0.00,,SKC,0.00,735.00,VWS V14.01,2013-03-02 20:18:00,
2013-03-02 13:24:00,47.9,26.5,30.16,NE,38,6.0,11.0,43,0.00,,SKC,0.00,742.00,VWS V14.01,2013-03-02 20:24:00,
2013-03-02 13:30:00,48.2,26.8,30.16,NNE,18,7.0,11.0,43,0.00,,SKC,0.00,735.00,VWS V14.01,2013-03-02 20:30:00,
2013-03-02 13:36:00,48.1,26.7,30.16,NNE,19,10.0,12.0,43,0.00,,SKC,0.00,722.00,VWS V14.01,2013-03-02 20:36:00,
2013-03-02 13:42:00,48.3,26.9,30.15,NNE,19,5.0,12.0,43,0.00,,SKC,0.00,694.00,VWS V14.01,2013-03-02 20:42:00,
2013-03-02 13:45:00,48.5,26.5,30.14,NE,51,3.0,12.0,42,0.00,,SKC,0.00,708.00,VWS V14.01,2013-03-02 20:45:00,
2013-03-02 13:48:00,48.5,26.5,30.13,NNE,13,10.0,11.0,42,0.00,,SKC,0.00,705.00,VWS V14.01,2013-03-02 20:48:00,
2013-03-02 13:54:00,48.7,26.6,30.13,North,355,6.0,11.0,42,0.00,,SKC,0.00,701.00,VWS V14.01,2013-03-02 20:54:00,
2013-03-02 14:00:00,49.0,26.3,30.13,NE,38,5.0,12.0,41,0.00,,SKC,0.00,686.00,VWS V14.01,2013-03-02 21:00:00,
2013-03-02 14:06:00,49.4,26.7,30.15,North,360,4.0,8.0,41,0.00,,SKC,0.00,680.00,VWS V14.01,2013-03-02 21:06:00,
2013-03-02 14:12:00,49.6,26.9,30.14,North,355,5.0,10.0,41,0.00,,SKC,0.00,599.00,VWS V14.01,2013-03-02 21:12:00,
2013-03-02 14:15:00,49.5,26.2,30.14,NNE,26,6.0,10.0,40,0.00,,SKC,0.00,645.00,VWS V14.01,2013-03-02 21:15:00,
2013-03-02 14:18:00,49.5,26.8,30.13,NNW,327,9.0,10.0,41,0.00,,SKC,0.00,652.00,VWS V14.01,2013-03-02 21:18:00,
2013-03-02 14:24:00,49.3,26.6,30.15,North,11,2.0,10.0,41,0.00,,SKC,0.00,621.00,VWS V14.01,2013-03-02 21:24:00,
2013-03-02 14:30:00,49.6,26.3,30.13,NE,44,7.0,10.0,40,0.00,,SKC,0.00,605.00,VWS V14.01,2013-03-02 21:30:00,
2013-03-02 14:37:00,49.6,26.3,30.13,NNE,22,7.0,9.0,40,0.00,,SKC,0.00,612.00,VWS V14.01,2013-03-02 21:37:00,
2013-03-02 14:43:00,49.7,27.0,30.12,NE,44,1.0,11.0,41,0.00,,SKC,0.00,626.00,VWS V14.01,2013-03-02 21:43:00,
2013-03-02 14:45:00,49.9,26.6,30.12,North,5,7.0,11.0,40,0.00,,SKC,0.00,610.00,VWS V14.01,2013-03-02 21:45:00,
2013-03-02 14:49:00,50.1,26.7,30.12,NNE,27,4.0,9.0,40,0.00,,SKC,0.00,598.00,VWS V14.01,2013-03-02 21:49:00,
2013-03-02 14:55:00,50.4,26.4,30.12,North,5,9.0,9.0,39,0.00,,SKC,0.00,585.00,VWS V14.01,2013-03-02 21:55:00,
2013-03-02 15:00:00,50.4,26.4,30.12,NNE,30,4.0,9.0,39,0.00,,SKC,0.00,564.00,VWS V14.01,2013-03-02 22:00:00,
2013-03-02 15:01:00,50.4,26.4,30.12,NNE,30,4.0,9.0,39,0.00,,SKC,0.00,564.00,VWS V14.01,2013-03-02 22:01:00,
2013-03-02 15:07:00,50.4,26.4,30.14,NNE,15,5.0,9.0,39,0.00,,SKC,0.00,538.00,VWS V14.01,2013-03-02 22:07:00,
2013-03-02 15:13:00,50.5,26.5,30.13,NNE,17,7.0,10.0,39,0.00,,SKC,0.00,526.00,VWS V14.01,2013-03-02 22:13:00,
2013-03-02 15:15:00,50.4,27.0,30.14,NNE,21,5.0,10.0,40,0.00,,SKC,0.00,510.00,VWS V14.01,2013-03-02 22:15:00,
2013-03-02 15:19:00,50.5,26.5,30.13,North,5,7.0,8.0,39,0.00,,SKC,0.00,506.00,VWS V14.01,2013-03-02 22:19:00,
2013-03-02 15:25:00,50.5,26.5,30.12,North,11,9.0,9.0,39,0.00,,SKC,0.00,445.00,VWS V14.01,2013-03-02 22:25:00,
2013-03-02 15:30:00,50.3,26.3,30.13,NNE,30,2.0,9.0,39,0.00,,SKC,0.00,452.00,VWS V14.01,2013-03-02 22:30:00,
2013-03-02 15:31:00,50.3,26.3,30.13,NNE,30,2.0,9.0,39,0.00,,SKC,0.00,452.00,VWS V14.01,2013-03-02 22:31:00,
2013-03-02 15:37:00,50.3,26.9,30.14,NNE,25,2.0,7.0,40,0.00,,SKC,0.00,345.00,VWS V14.01,2013-03-02 22:37:00,
2013-03-02 15:43:00,50.4,27.0,30.13,NNE,19,4.0,8.0,40,0.00,,SKC,0.00,436.00,VWS V14.01,2013-03-02 22:43:00,
2013-03-02 15:45:00,50.5,27.1,30.12,NNE,32,3.0,8.0,40,0.00,,SKC,0.00,503.00,VWS V14.01,2013-03-02 22:45:00,
2013-03-02 15:49:00,50.6,26.6,30.12,NE,34,3.0,6.0,39,0.00,,SKC,0.00,448.00,VWS V14.01,2013-03-02 22:49:00,
2013-03-02 15:55:00,50.6,27.2,30.12,NNE,15,4.0,9.0,40,0.00,,SKC,0.00,290.00,VWS V14.01,2013-03-02 22:55:00,
2013-03-02 16:00:00,50.2,26.8,30.13,NNE,33,1.0,9.0,40,0.00,,SKC,0.00,371.00,VWS V14.01,2013-03-02 23:00:00,
2013-03-02 16:01:00,50.2,26.8,30.13,NNE,33,1.0,9.0,40,0.00,,SKC,0.00,371.00,VWS V14.01,2013-03-02 23:01:00,
2013-03-02 16:07:00,50.1,26.7,30.12,NNE,21,2.0,7.0,40,0.00,,SKC,0.00,394.00,VWS V14.01,2013-03-02 23:07:00,
2013-03-02 16:13:00,50.2,27.4,30.12,NNW,344,7.0,7.0,41,0.00,,SKC,0.00,348.00,VWS V14.01,2013-03-02 23:13:00,
2013-03-02 16:15:00,50.2,26.8,30.12,North,351,4.0,7.0,40,0.00,,SKC,0.00,338.00,VWS V14.01,2013-03-02 23:15:00,
2013-03-02 16:19:00,50.0,27.2,30.12,North,355,4.0,6.0,41,0.00,,SKC,0.00,220.00,VWS V14.01,2013-03-02 23:19:00,
2013-03-02 16:25:00,49.7,27.0,30.12,North,360,0.0,6.0,41,0.00,,SKC,0.00,44.00,VWS V14.01,2013-03-02 23:25:00,
2013-03-02 16:30:00,49.6,26.9,30.12,NNW,337,1.0,6.0,41,0.00,,SKC,0.00,46.00,VWS V14.01,2013-03-02 23:30:00,
2013-03-02 16:31:00,49.6,26.9,30.12,NNW,337,1.0,6.0,41,0.00,,SKC,0.00,46.00,VWS V14.01,2013-03-02 23:31:00,
2013-03-02 16:37:00,49.2,27.1,30.12,NNW,335,0.0,4.0,42,0.00,,SKC,0.00,47.00,VWS V14.01,2013-03-02 23:37:00,
2013-03-02 16:43:00,48.9,27.4,30.12,NNW,334,0.0,4.0,43,0.00,,SKC,0.00,51.00,VWS V14.01,2013-03-02 23:43:00,
2013-03-02 16:45:00,48.7,27.2,30.12,NNW,334,0.0,4.0,43,0.00,,SKC,0.00,47.00,VWS V14.01,2013-03-02 23:45:00,
2013-03-02 16:49:00,48.5,27.6,30.11,NNW,334,0.0,2.0,44,0.00,,SKC,0.00,46.00,VWS V14.01,2013-03-02 23:49:00,
2013-03-02 16:55:00,48.2,27.9,30.12,NNW,334,0.0,2.0,45,0.00,,SKC,0.00,33.00,VWS V14.01,2013-03-02 23:55:00,
2013-03-02 17:00:00,47.8,27.5,30.12,NNW,334,0.0,2.0,45,0.00,,SKC,0.00,26.00,VWS V14.01,2013-03-03 00:00:00,
2013-03-02 17:01:00,47.8,27.5,30.12,NNW,334,0.0,2.0,45,0.00,,SKC,0.00,26.00,VWS V14.01,2013-03-03 00:01:00,
2013-03-02 17:07:00,47.4,27.7,30.11,NNW,334,0.0,0.0,46,0.00,,SKC,0.00,25.00,VWS V14.01,2013-03-03 00:07:00,
2013-03-02 17:13:00,46.7,27.6,30.11,NNW,334,0.0,0.0,47,0.00,,SKC,0.00,26.00,VWS V14.01,2013-03-03 00:13:00,
2013-03-02 17:15:00,46.3,28.2,30.11,NNW,334,0.0,0.0,49,0.00,,SKC,0.00,30.00,VWS V14.01,2013-03-03 00:15:00,
2013-03-02 17:19:00,45.9,27.8,30.13,NNW,334,0.0,1.0,49,0.00,,SKC,0.00,28.00,VWS V14.01,2013-03-03 00:19:00,
2013-03-02 17:25:00,45.2,27.7,30.13,NNW,334,0.0,2.0,50,0.00,,SKC,0.00,21.00,VWS V14.01,2013-03-03 00:25:00,
2013-03-02 17:30:00,44.5,28.0,30.13,NNW,334,0.0,2.0,52,0.00,,SKC,0.00,19.00,VWS V14.01,2013-03-03 00:30:00,
2013-03-02 17:31:00,44.5,28.0,30.13,NNW,334,0.0,2.0,52,0.00,,SKC,0.00,19.00,VWS V14.01,2013-03-03 00:31:00,
2013-03-02 17:36:00,44.0,28.0,30.15,NNW,334,0.0,1.0,53,0.00,,SKC,0.00,18.00,VWS V14.01,2013-03-03 00:36:00,
2013-03-02 17:42:00,43.3,28.2,30.15,NNW,334,0.0,2.0,55,0.00,,SKC,0.00,12.00,VWS V14.01,2013-03-03 00:42:00,
2013-03-02 17:45:00,42.9,27.9,30.15,NNW,334,0.0,2.0,55,0.00,,SKC,0.00,9.00,VWS V14.01,2013-03-03 00:45:00,
2013-03-02 17:48:00,42.5,27.5,30.15,NNW,334,0.0,2.0,55,0.00,,SKC,0.00,7.00,VWS V14.01,2013-03-03 00:48:00,
2013-03-02 17:54:00,41.8,27.7,30.16,NNW,334,0.0,2.0,57,0.00,,SKC,0.00,5.00,VWS V14.01,2013-03-03 00:54:00,
2013-03-02 18:00:00,41.0,27.0,30.16,NNW,334,1.0,2.0,57,0.00,,SKC,0.00,0.00,VWS V14.01,2013-03-03 01:00:00,
2013-03-02 18:06:00,40.2,26.6,30.18,NNW,334,0.0,1.0,58,0.00,,SKC,0.00,0.00,VWS V14.01,2013-03-03 01:06:00,
2013-03-02 18:12:00,39.7,26.6,30.18,NNW,334,0.0,1.0,59,0.00,,SKC,0.00,0.00,VWS V14.01,2013-03-03 01:12:00,
2013-03-02 18:15:00,39.4,26.3,30.18,NNW,334,0.0,1.0,59,0.00,,SKC,0.00,0.00,VWS V14.01,2013-03-03 01:15:00,
2013-03-02 18:18:00,39.3,26.6,30.19,NNW,334,0.0,0.0,60,0.00,,SKC,0.00,0.00,VWS V14.01,2013-03-03 01:18:00,
2013-03-02 18:24:00,38.8,26.5,30.19,NNW,334,0.0,1.0,61,0.00,,SKC,0.00,0.00,VWS V14.01,2013-03-03 01:24:00,
2013-03-02 18:30:00,38.3,26.4,30.19,NNW,334,0.0,1.0,62,0.00,,SKC,0.00,0.00,VWS V14.01,2013-03-03 01:30:00,
2013-03-02 18:36:00,37.6,26.2,30.19,NNW,334,0.0,1.0,63,0.00,,SKC,0.00,0.00,VWS V14.01,2013-03-03 01:36:00,
2013-03-02 18:42:00,37.1,26.1,30.20,NNW,334,0.0,1.0,64,0.00,,SKC,0.00,0.00,VWS V14.01,2013-03-03 01:42:00,
2013-03-02 18:45:00,36.8,26.1,30.20,NNW,334,0.0,1.0,65,0.00,,SKC,0.00,0.00,VWS V14.01,2013-03-03 01:45:00,
2013-03-02 18:48:00,36.6,26.0,30.20,NNW,334,0.0,0.0,65,0.00,,SKC,0.00,0.00,VWS V14.01,2013-03-03 01:48:00,
2013-03-02 18:54:00,36.3,26.0,30.21,NNW,334,0.0,0.0,66,0.00,,SKC,0.00,0.00,VWS V14.01,2013-03-03 01:54:00,
2013-03-02 19:00:00,35.9,26.0,30.21,NNW,331,0.0,2.0,67,0.00,,SKC,0.00,0.00,VWS V14.01,2013-03-03 02:00:00,
2013-03-02 19:06:00,35.4,26.3,30.20,NNW,331,0.0,1.0,69,0.00,,SKC,0.00,0.00,VWS V14.01,2013-03-03 02:06:00,
2013-03-02 19:12:00,35.1,26.0,30.20,NNW,331,0.0,1.0,69,0.00,,SKC,0.00,0.00,VWS V14.01,2013-03-03 02:12:00,
2013-03-02 19:15:00,34.9,26.1,30.20,NNW,332,0.0,1.0,70,0.00,,SKC,0.00,0.00,VWS V14.01,2013-03-03 02:15:00,
2013-03-02 19:18:00,34.8,26.0,30.20,NNW,332,0.0,1.0,70,0.00,,SKC,0.00,0.00,VWS V14.01,2013-03-03 02:18:00,
2013-03-02 19:24:00,34.4,26.0,30.22,NNW,331,0.0,1.0,71,0.00,,SKC,0.00,0.00,VWS V14.01,2013-03-03 02:24:00,
2013-03-02 19:30:00,34.4,26.0,30.22,NNW,331,0.0,1.0,71,0.00,,SKC,0.00,0.00,VWS V14.01,2013-03-03 02:30:00,
2013-03-02 19:36:00,34.2,26.1,30.21,NNW,331,0.0,0.0,72,0.00,,SKC,0.00,0.00,VWS V14.01,2013-03-03 02:36:00,
2013-03-02 19:42:00,33.9,25.8,30.21,NNW,331,0.0,1.0,72,0.00,,SKC,0.00,0.00,VWS V14.01,2013-03-03 02:42:00,
2013-03-02 19:45:00,33.7,25.3,30.21,NNW,332,0.0,1.0,71,0.00,,SKC,0.00,0.00,VWS V14.01,2013-03-03 02:45:00,
2013-03-02 19:48:00,33.5,25.5,30.21,NNW,332,0.0,0.0,72,0.00,,SKC,0.00,0.00,VWS V14.01,2013-03-03 02:48:00,
2013-03-02 19:54:00,33.2,25.8,30.21,NNW,331,0.0,1.0,74,0.00,,SKC,0.00,0.00,VWS V14.01,2013-03-03 02:54:00,
2013-03-02 20:00:00,32.9,25.9,30.20,NNW,332,0.0,1.0,75,0.00,,SKC,0.00,0.00,VWS V14.01,2013-03-03 03:00:00,
2013-03-02 20:06:00,32.7,25.7,30.17,NNW,332,0.0,0.0,75,0.00,,SKC,0.00,0.00,VWS V14.01,2013-03-03 03:06:00,
2013-03-02 20:12:00,32.4,25.4,30.18,NNW,332,0.0,1.0,75,0.00,,SKC,0.00,0.00,VWS V14.01,2013-03-03 03:12:00,
2013-03-02 20:15:00,32.2,25.2,30.18,NNW,332,0.0,1.0,75,0.00,,SKC,0.00,0.00,VWS V14.01,2013-03-03 03:15:00,
2013-03-02 20:18:00,32.1,25.1,30.18,NNW,331,0.0,0.0,75,0.00,,SKC,0.00,0.00,VWS V14.01,2013-03-03 03:18:00,
2013-03-02 20:24:00,31.9,25.2,30.18,NNW,331,0.0,0.0,76,0.00,,SKC,0.00,0.00,VWS V14.01,2013-03-03 03:24:00,
2013-03-02 20:30:00,31.6,24.9,30.18,NNW,332,0.0,0.0,76,0.00,,SKC,0.00,0.00,VWS V14.01,2013-03-03 03:30:00,
2013-03-02 20:36:00,31.3,24.6,30.18,NNW,331,0.0,1.0,76,0.00,,SKC,0.00,0.00,VWS V14.01,2013-03-03 03:36:00,
2013-03-02 20:42:00,31.0,24.6,30.18,NNW,332,0.0,1.0,77,0.00,,SKC,0.00,0.00,VWS V14.01,2013-03-03 03:42:00,
2013-03-02 20:45:00,30.8,24.5,30.18,NNW,331,0.0,1.0,77,0.00,,SKC,0.00,0.00,VWS V14.01,2013-03-03 03:45:00,
2013-03-02 20:48:00,30.7,24.4,30.19,NNW,331,0.0,0.0,77,0.00,,SKC,0.00,0.00,VWS V14.01,2013-03-03 03:48:00,
2013-03-02 20:54:00,30.4,24.4,30.19,NNW,332,0.0,0.0,78,0.00,,SKC,0.00,0.00,VWS V14.01,2013-03-03 03:54:00,
2013-03-02 21:00:00,30.1,24.1,30.20,NNW,332,0.0,0.0,78,0.00,,SKC,0.00,0.00,VWS V14.01,2013-03-03 04:00:00,
2013-03-02 21:06:00,29.9,24.2,30.14,NNW,332,0.0,0.0,79,0.00,,SKC,0.00,0.00,VWS V14.01,2013-03-03 04:06:00,
2013-03-02 21:12:00,29.7,24.0,30.14,NNW,331,0.0,0.0,79,0.00,,SKC,0.00,0.00,VWS V14.01,2013-03-03 04:12:00,
2013-03-02 21:15:00,29.6,23.9,30.14,NNW,332,0.0,0.0,79,0.00,,SKC,0.00,0.00,VWS V14.01,2013-03-03 04:15:00,
2013-03-02 21:18:00,29.6,24.2,30.14,NNW,331,0.0,0.0,80,0.00,,SKC,0.00,0.00,VWS V14.01,2013-03-03 04:18:00,
2013-03-02 21:24:00,29.4,24.0,30.14,NNW,332,0.0,0.0,80,0.00,,SKC,0.00,0.00,VWS V14.01,2013-03-03 04:24:00,
2013-03-02 21:30:00,29.4,24.0,30.14,NNW,332,0.0,0.0,80,0.00,,SKC,0.00,0.00,VWS V14.01,2013-03-03 04:30:00,
2013-03-02 21:36:00,29.4,24.0,30.14,NNW,332,0.0,0.0,80,0.00,,SKC,0.00,0.00,VWS V14.01,2013-03-03 04:36:00,
2013-03-02 21:42:00,29.4,24.0,30.13,NNW,331,0.0,0.0,80,0.00,,SKC,0.00,0.00,VWS V14.01,2013-03-03 04:42:00,
2013-03-02 21:45:00,29.4,24.0,30.13,NNW,332,0.0,0.0,80,0.00,,SKC,0.00,0.00,VWS V14.01,2013-03-03 04:45:00,
2013-03-02 21:49:00,29.4,24.0,30.13,NNW,332,0.0,0.0,80,0.00,,SKC,0.00,0.00,VWS V14.01,2013-03-03 04:49:00,
2013-03-02 21:55:00,29.3,23.9,30.12,NNW,331,0.0,0.0,80,0.00,,SKC,0.00,0.00,VWS V14.01,2013-03-03 04:55:00,
2013-03-02 22:00:00,29.2,23.8,30.12,NNW,331,0.0,0.0,80,0.00,,SKC,0.00,0.00,VWS V14.01,2013-03-03 05:00:00,
2013-03-02 22:01:00,29.2,23.8,30.12,NNW,331,0.0,0.0,80,0.00,,SKC,0.00,0.00,VWS V14.01,2013-03-03 05:01:00,
2013-03-02 22:02:00,29.2,23.8,30.09,NNW,331,0.0,0.0,80,0.00,,SKC,0.00,0.00,VWS V14.01,2013-03-03 05:02:00,
2013-03-02 22:05:00,29.2,23.8,30.09,NNW,332,0.0,0.0,80,0.00,,SKC,0.00,0.00,VWS V14.01,2013-03-03 05:05:00,
2013-03-02 22:11:00,29.1,23.7,30.08,NNW,331,0.0,0.0,80,0.00,,SKC,0.00,0.00,VWS V14.01,2013-03-03 05:11:00,
2013-03-02 22:17:00,28.9,23.5,30.08,NNW,331,0.0,0.0,80,0.00,,SKC,0.00,0.00,VWS V14.01,2013-03-03 05:17:00,
2013-03-02 22:23:00,28.8,23.7,30.08,NNW,332,0.0,0.0,81,0.00,,SKC,0.00,0.00,VWS V14.01,2013-03-03 05:23:00,
2013-03-02 22:29:00,28.8,23.7,30.07,NNW,332,0.0,0.0,81,0.00,,SKC,0.00,0.00,VWS V14.01,2013-03-03 05:29:00,
2013-03-02 22:30:00,28.7,23.6,30.07,NNW,332,0.0,0.0,81,0.00,,SKC,0.00,0.00,VWS V14.01,2013-03-03 05:30:00,
2013-03-02 22:35:00,28.6,23.5,30.07,NNW,332,0.0,2.0,81,0.00,,SKC,0.00,0.00,VWS V14.01,2013-03-03 05:35:00,
2013-03-02 22:41:00,28.5,23.4,30.07,NNW,332,0.0,2.0,81,0.00,,SKC,0.00,0.00,VWS V14.01,2013-03-03 05:41:00,
2013-03-02 22:45:00,28.4,23.6,30.07,North,350,0.0,4.0,82,0.00,,SKC,0.00,0.00,VWS V14.01,2013-03-03 05:45:00,
2013-03-02 22:47:00,28.3,23.5,30.07,North,349,2.0,2.0,82,0.00,,SKC,0.00,0.00,VWS V14.01,2013-03-03 05:47:00,
2013-03-02 22:53:00,28.3,23.8,30.07,North,10,0.0,4.0,83,0.00,,SKC,0.00,0.00,VWS V14.01,2013-03-03 05:53:00,
2013-03-02 22:59:00,28.4,23.9,30.07,North,360,0.0,4.0,83,0.00,,SKC,0.00,0.00,VWS V14.01,2013-03-03 05:59:00,
2013-03-02 23:00:00,28.4,23.9,30.07,North,360,0.0,4.0,83,0.00,,SKC,0.00,0.00,VWS V14.01,2013-03-03 06:00:00,
2013-03-02 23:05:00,28.5,24.0,30.02,North,360,0.0,1.0,83,0.00,,SKC,0.00,0.00,VWS V14.01,2013-03-03 06:05:00,
2013-03-02 23:11:00,28.6,23.8,30.02,North,360,0.0,1.0,82,0.00,,SKC,0.00,0.00,VWS V14.01,2013-03-03 06:11:00,
2013-03-02 23:15:00,28.7,23.9,30.02,North,360,1.0,2.0,82,0.00,,SKC,0.00,0.00,VWS V14.01,2013-03-03 06:15:00,
2013-03-02 23:17:00,28.7,23.9,30.02,North,360,0.0,2.0,82,0.00,,SKC,0.00,0.00,VWS V14.01,2013-03-03 06:17:00,
2013-03-02 23:23:00,28.8,24.0,30.02,North,5,0.0,3.0,82,0.00,,SKC,0.00,0.00,VWS V14.01,2013-03-03 06:23:00,
2013-03-02 23:30:00,29.0,24.2,30.02,North,5,0.0,3.0,82,0.00,,SKC,0.00,0.00,VWS V14.01,2013-03-03 06:30:00,
2013-03-02 23:36:00,29.2,24.1,30.02,North,5,0.0,1.0,81,0.00,,SKC,0.00,0.00,VWS V14.01,2013-03-03 06:36:00,
2013-03-02 23:42:00,29.3,24.2,30.01,North,5,2.0,2.0,81,0.00,,SKC,0.00,0.00,VWS V14.01,2013-03-03 06:42:00,
2013-03-02 23:45:00,29.4,24.0,30.01,North,5,0.0,2.0,80,0.00,,SKC,0.00,0.00,VWS V14.01,2013-03-03 06:45:00,
2013-03-02 23:48:00,29.4,24.0,30.01,North,5,0.0,0.0,80,0.00,,SKC,0.00,0.00,VWS V14.01,2013-03-03 06:48:00,
2013-03-02 23:54:00,29.4,24.0,30.00,North,5,0.0,3.0,80,0.00,,SKC,0.00,0.00,VWS V14.01,2013-03-03 06:54:00,